Location: Harwich
(41.7160°N, 69.9939°W)
Time: 12:40:49
(UTC+01:00)

A-11 Canister half - Pass Details

Date: 01 December 2023
Orbit: 1526 x 1682 km, 47.3° (Epoch: 01 March)

Event Time Altitude Azimuth Distance (km) Brightness Sun altitude
Rises 00:42:54 0° 212° (SSW) 4,914 12.1 -27.8°
Reaches altitude 10° 00:46:12 10° 207° (SSW) 3,933 11.5 -28.4°
Maximum altitude 00:55:42 48° 137° (SE) 2,098 9.3 -30.2°
Enters shadow 00:56:14 47° 129° (SE) 2,106 9.3 -30.3°
Drops below altitude 10° 01:05:08 10° 68° (ENE) 3,906 - -32.0°
Sets 01:08:23 0° 63° (ENE) 4,879 - -32.6°
